User: anonymous   Login
Location: Chervonnoye
(48.6000°N, 34.4000°E)
Time: 05:15:17
(UTC+00:00)
Language:

IRS-1C Rocket - Orbit

View from above orbital plane
View from above orbital plane
View from above satellite
View from above satellite

Ground track
Ground track

The orbit data is extracted from the following two-line orbital elements,

1 23753U 95072C   21055.80575984 -.00000017  00000-0  12109-4 0  9998
2 23753  98.9615  81.9558 0002998 329.9458  30.1548 14.26597547309513
Epoch (UTC): 24 February 2021 19:20:17
Eccentricity: 0.0002998
inclination: 98.9615°
perigee height: 801 km
apogee height: 805 km
right ascension of ascending node: 81.9558°
argument of perigee: 329.9458°
revolutions per day: 14.26597547
mean anomaly at epoch: 30.1548°
orbit number at epoch: 30951

The dashed part of the orbit path shows where the satellite is in the earth's shadow,  

DLR